This demonstration page uses our WeatherBlox Daily Observations layout. Learn more.

Left ArrowRight Arrow

39.92423, -83.80882

Hourly Observations for January 29, 2019

Temp ( °F °C ) Dew Point ( °F °C ) Humidity (%) Winds ( mph kmh ) Pressure ( in mb ) Visibility ( mi km ) Precip ( " mm )
12:11 am 00:11 Cloudy 25 -4 19 -7 80 80 W 25 41 29.86 1011 10 16 N/A
12:56 am 00:56 Windy with Snow Likely 21 -6.1 17 -8.3 85 85 WSW 25 41 29.85 1011 9 14 N/A
1:56 am 01:56 Windy with Snow Likely 19 -7.2 15 -9.4 84 84 W 21 33 29.88 1012 8 13 N/A
2:56 am 02:56 Windy with Snow Likely 17 -8.3 11 -11.7 77 77 W 21 33 29.89 1012 9 14 N/A
3:56 am 03:56 Windy with Snow Likely 16 -8.9 10 -12.2 77 77 W 22 35 29.89 1012 9 14 N/A
4:56 am 04:56 Cloudy with Light Snow 16 -8.9 11 -11.7 80 80 W 18 30 29.91 1013 9 14 N/A
5:56 am 05:56 Cloudy with Light Snow 15 -9.4 10 -12.2 80 80 W 18 30 29.93 1014 9 14 N/A
6:56 am 06:56 Cloudy with Light Snow 15 -9.4 10 -12.2 80 80 W 16 26 29.95 1014 5 8 N/A
7:56 am 07:56 Cloudy with Light Snow 14 -10 10 -12.2 84 84 W 14 22 29.97 1015 7 11 N/A
8:51 am 08:51 Cloudy with Light Snow 14 -10 10 -12 85 85 W 17 28 30.04 1017 6 10 N/A
8:56 am 08:56 Windy with Snow Likely 14 -10 9 -12.8 80 80 W 20 31 29.98 1015 7 11 N/A
9:46 am 09:46 Cloudy with Light Snow 14 -10 10 -12 85 85 WSW 18 30 30.05 1018 4 6 N/A
9:56 am 09:56 Windy with Snow Likely 14 -10 8 -13.3 77 77 W 21 33 30.00 1016 9 14 N/A
10:56 am 10:56 Cloudy with Light Snow 15 -9.4 10 -12.2 80 80 W 17 28 30.01 1016 4 6 N/A
11:56 am 11:56 Windy with Snow Likely 15 -9.4 9 -12.8 77 77 W 20 31 30.00 1016 9 14 N/A
12:33 pm 12:33 Cloudy with Light Snow 16 -9 10 -12 79 79 W 18 30 30.04 1017 2 3 N/A
12:40 pm 12:40 Windy with Snow Likely 14 -10 10 -12 85 85 W 21 33 30.04 1017 2 2 N/A
12:49 pm 12:49 Windy with Snow Likely 14 -10 9 -13 79 79 W 23 37 30.04 1017 3 5 N/A
12:56 pm 12:56 Windy with Snow Likely 14 -10 8 -13.3 77 77 W 22 35 29.99 1016 9 14 N/A
1:56 pm 13:56 Windy with Snow Likely 14 -10 8 -13.3 77 77 W 22 35 29.98 1015 7 11 N/A
2:39 pm 14:39 Mostly Cloudy 16 -9 7 -14 67 67 W 22 35 30.01 1016 10 16 N/A
2:56 pm 14:56 Mostly Cloudy 16 -8.9 7 -13.9 67 67 WSW 18 30 29.98 1015 10 16 N/A
3:56 pm 15:56 Mostly Cloudy 17 -8.3 5 -15 59 59 WSW 18 30 29.98 1015 10 16 N/A
4:56 pm 16:56 Cloudy 17 -8.3 6 -14.4 62 62 WSW 17 28 29.99 1016 10 16 N/A
5:56 pm 17:56 Mostly Cloudy 16 -8.9 3 -16.1 56 56 W 23 37 30.01 1016 10 16 N/A
6:56 pm 18:56 Mostly Cloudy 15 -9.4 4 -15.6 61 61 W 15 24 30.04 1017 10 16 N/A
7:56 pm 19:56 Mostly Clear 15 -9.4 4 -15.6 61 61 WSW 18 30 30.04 1017 10 16 N/A
8:56 pm 20:56 Cloudy 15 -9.4 6 -14.4 67 67 WSW 13 20 30.03 1017 10 16 N/A
9:56 pm 21:56 Cloudy with Light Snow 14 -10 9 -12.8 80 80 W 15 24 30.03 1017 3 5 N/A
9:58 pm 21:58 Cloudy with Light Snow 14 -10 9 -13 79 79 W 15 24 30.07 1018 3 4 N/A
10:08 pm 22:08 Cloudy with Light Snow 14 -10 10 -12 85 85 W 16 26 30.06 1018 4 6 N/A
10:32 pm 22:32 Cloudy with Light Snow 12 -11 10 -12 92 92 NNW 10 17 30.07 1018 2 3 N/A
10:36 pm 22:36 Cloudy with Light Snow 12 -11 10 -12 92 92 NW 9 15 30.07 1018 1 2 N/A
10:41 pm 22:41 Cloudy with Light Snow 12 -11 10 -12 92 92 WNW 10 17 30.07 1018 1 1 N/A
10:47 pm 22:47 Cloudy with Light Snow 12 -11 10 -12 92 92 WNW 9 15 30.06 1018 1 2 N/A
10:52 pm 22:52 Cloudy with Light Snow 12 -11 10 -12 92 92 WNW 10 17 30.07 1018 2 3 N/A
10:56 pm 22:56 Cloudy with Light Snow 12 -11.1 10 -12.2 92 92 WNW 12 19 30.03 1017 3 5 N/A
11:04 pm 23:04 Cloudy with Light Snow 12 -11 10 -12 92 92 WNW 15 24 30.07 1018 2 3 N/A
11:09 pm 23:09 Cloudy with Light Snow 10 -12 9 -13 92 92 WNW 13 20 30.08 1019 1 2 N/A
11:32 pm 23:32 Cloudy with Light Snow 10 -12 7 -14 85 85 WNW 13 20 30.08 1019 1 2 N/A
11:40 pm 23:40 Cloudy with Light Snow 10 -12 7 -14 85 85 WNW 15 24 30.08 1019 2 3 N/A
11:56 pm 23:56 Cloudy with Light Snow 10 -12.2 7 -13.9 87 87 WNW 10 17 30.04 1017 2 3 N/A

Powered by AerisWeather